Hourly Data Report for October 18, 2014

All times are specified in Local Standard Time (LST). Add 1 hour to adjust for Daylight Saving Time where and when it is observed.

ST LEONARD CS
NEW BRUNSWICK

47°09'28.050" N
67°49'55.014" W
245.00 m
810I001
71019
WIY

Download Data

Hourly Data (October 2014)
Hourly Data Report for October 18, 2014
Temp Definition
°C
Dew Point Temp Definition
°C
Rel Hum Definition
%
Wind Dir Definition
10's deg

Wind Spd Definition
km/h
Visibility Definition
km
Stn Press Definition
kPa
Hmdx Definition


Wind Chill Definition


Weather Definition


TIME
00:00 10.8 10.2 96 18 3   97.22     LegendNANA
01:00 10.6 10.1 96 19 2   97.23     LegendNANA
02:00 10.9 10.0 94 21 1   97.21     LegendNANA
03:00 9.9 9.4 97 18 3   97.19     LegendNANA
04:00 10.0 9.3 95 16 3   97.17     LegendNANA
05:00 10.7 10.0 96 18 2   97.18     LegendNANA
06:00 11.0 10.2 95 18 2   97.19     LegendNANA
07:00 10.8 10.1 96 15 1   97.21     LegendNANA
08:00 11.2 10.5 96 15 2   97.21     LegendNANA
09:00 11.8 10.8 94 16 2   97.23     LegendNANA
10:00 12.3 11.1 92 16 2   97.20     LegendNANA
11:00 13.9 11.7 87 17 8   97.14     LegendNANA
12:00 13.7 11.6 87 18 6   97.12     LegendNANA
13:00 13.6 11.5 87 18 4   97.07     LegendNANA
14:00 13.6 11.2 85 18 3   97.05     LegendNANA
15:00 13.4 11.3 88 18 3   97.02     LegendNANA
16:00 14.3 11.8 85 18 3   96.97     LegendNANA
17:00 13.4 11.8 90 15 1   96.91     LegendNANA
18:00 13.0 11.9 93 15 1   96.90     LegendNANA
19:00 13.0 12.0 93 0 1   96.85     LegendNANA
20:00 13.2 12.0 93 0 1   96.83     LegendNANA
21:00 13.3 12.1 93   0   96.79     LegendNANA
22:00 12.8 12.3 96 17 1   96.75     LegendNANA
23:00 12.2 11.7 96 16 2   96.70     LegendNANA

Notes on Data Quality.

Legend

  • E = Estimated
  • M = Missing
  • NA = Not Available
  • ‡ = Partner data that is not subject to review by the National Climate Archives
Date modified: